Vernal, UT

12:49 PM MST on February 23, 2017 (GMT -0700)
Vernal

Weather History for KVEL - June, 2013

Change the Weather History Date:

Monday, June 3, 2013

  Actual Average Record
Temperature  
Mean Temperature 65 °F 62 °F  
Max Temperature 84 °F 76 °F 93 °F (1972)
Min Temperature 45 °F 48 °F 25 °F (1943)
Degree Days  
Heating Degree Days 0 4  
Month to date heating degree days 11 14  
Since 1 June heating degree days 11 14  
Since 1 July heating degree days 7579 7162  
Cooling Degree Days 0 1  
Month to date cooling degree days 0 3  
Year to date cooling degree days 8 12  
Since 1 June cooling degree days 0 3  
Growing Degree Days 16 (Base 50)    
Moisture  
Dew Point 24 °F    
Average Humidity 27    
Maximum Humidity 46    
Minimum Humidity 8    
Precipitation  
Precipitation 0.00 in 0.03 in 0.85 in (1945)
Month to date precipitation 0.00 0.09  
Year to date precipitation 3.79 3.50  
Sea Level Pressure  
Sea Level Pressure 29.70 in    
Wind  
Wind Speed 8 mph (West)    
Max Wind Speed 25 mph    
Max Gust Speed 37 mph    
Visibility 10 miles    
Events      
T = Trace of Precipitation, MM = Missing Value Source: NWS Daily Summary

Daily Weather History Graph

Daily Weather History Graph

Search for Another Location

Airport or City:

Trip Planner

Search our weather history database for the weather conditions in past years. The results will help you decide how hot, cold, wet, or windy it might be!

Date:

Astronomy

Jun. 03, 2013 Rise Set
Actual Time 5:49 AM MDT 8:43 PM MDT
Civil Twilight 5:16 AM MDT 9:16 PM MDT
Nautical Twilight 4:35 AM MDT 9:57 PM MDT
Astronomical Twilight 3:47 AM MDT 10:45 PM MDT
Moon 2:49 AM MDT (6/3) 4:16 PM MDT (6/3)
Length of Visible Light 16h 00m
Length of Day
14h 54m
Waning Crescent, 21% of the Moon is Illuminated
Jun 3
Waning Crescent
Jun 8
New
Jun 16
First Quarter
Jun 23
Full
Jun 29
Last Quarter

Hourly Weather History & Observations

Time (MDT) Temp. Dew Point Humidity Pressure Visibility Wind Dir Wind Speed Gust Speed Precip Events Conditions
12:53 AM 59.0 °F 28.9 °F 32% 29.62 in 10.0 mi WNW 4.6 mph - N/A   Clear
1:53 AM 55.9 °F 28.0 °F 34% 29.61 in 10.0 mi Calm Calm - N/A   Clear
2:53 AM 53.1 °F 30.0 °F 41% 29.62 in 10.0 mi WNW 5.8 mph - N/A   Clear
3:53 AM 51.1 °F 30.0 °F 44% 29.62 in 10.0 mi WNW 6.9 mph - N/A   Clear
4:53 AM 51.1 °F 30.0 °F 44% 29.63 in 10.0 mi West 6.9 mph - N/A   Clear
5:53 AM 50.0 °F 30.0 °F 46% 29.65 in 10.0 mi WNW 6.9 mph - N/A   Clear
6:53 AM 54.0 °F 33.1 °F 45% 29.68 in 10.0 mi Calm Calm - N/A   Clear
7:53 AM 64.9 °F 35.1 °F 33% 29.68 in 10.0 mi Calm Calm - N/A   Clear
8:53 AM 66.9 °F 33.1 °F 28% 29.71 in 10.0 mi East 3.5 mph - N/A   Clear
9:53 AM 66.9 °F 36.0 °F 32% 29.71 in 10.0 mi South 3.5 mph - N/A   Clear
10:53 AM 73.0 °F 36.0 °F 26% 29.72 in 10.0 mi SW 5.8 mph - N/A   Clear
11:53 AM 77.0 °F 36.0 °F 23% 29.70 in 10.0 mi Variable 3.5 mph - N/A   Clear
12:53 PM 82.0 °F 21.9 °F 11% 29.67 in 10.0 mi SW 18.4 mph 25.3 mph N/A   Clear
1:53 PM 82.0 °F 17.1 °F 9% 29.67 in 10.0 mi SW 18.4 mph 29.9 mph N/A   Clear
2:53 PM 82.9 °F 21.0 °F 10% 29.68 in 10.0 mi WSW 16.1 mph 29.9 mph N/A   Clear
3:53 PM 82.0 °F 16.0 °F 8% 29.69 in 10.0 mi WSW 12.7 mph 29.9 mph N/A   Clear
4:53 PM 81.0 °F 15.1 °F 8% 29.69 in 10.0 mi WSW 19.6 mph 31.1 mph N/A   Clear
5:53 PM 80.1 °F 12.9 °F 8% 29.70 in 10.0 mi West 18.4 mph 28.8 mph N/A   Clear
6:53 PM 78.1 °F 12.0 °F 8% 29.70 in 10.0 mi WSW 18.4 mph 29.9 mph N/A   Clear
7:53 PM 75.9 °F 10.9 °F 8% 29.70 in 10.0 mi WSW 16.1 mph 25.3 mph N/A   Clear
8:53 PM 70.0 °F 6.1 °F 8% 29.76 in 10.0 mi NNW 6.9 mph - N/A   Clear
9:53 PM 64.9 °F 6.1 °F 10% 29.81 in 10.0 mi NNE 6.9 mph - N/A   Clear
10:53 PM 55.0 °F 19.9 °F 25% 29.84 in 10.0 mi Calm Calm - N/A   Clear
11:53 PM 48.9 °F 25.0 °F 39% 29.86 in 10.0 mi Calm Calm - N/A   Clear